Mannheim, Germany

10:55 PM CEST on September 19, 2017 (GMT +0200)
Mannheim City

Weather History for EDFM - April, 2014

Change the Weather History Date:

Wednesday, April 23, 2014

  Actual Average Record
Temperature  
Mean Temperature 58 °F -  
Max Temperature 74 °F - - ()
Min Temperature 42 °F - - ()
Degree Days  
Heating Degree Days 7    
Growing Degree Days 8 (Base 50)    
Moisture  
Dew Point 45 °F    
Average Humidity 57    
Maximum Humidity 97    
Minimum Humidity 23    
Precipitation  
Precipitation 0.00 in - - ()
Sea Level Pressure  
Sea Level Pressure 30.07 in    
Wind  
Wind Speed 3 mph ()    
Max Wind Speed 10 mph    
Max Gust Speed -    
Visibility 8.6 miles    
Events      
T = Trace of Precipitation, MM = Missing Value Source: Averaged Metar Reports

Daily Weather History Graph

Daily Weather History Graph

Search for Another Location

Airport or City:

Trip Planner

Search our weather history database for the weather conditions in past years. The results will help you decide how hot, cold, wet, or windy it might be!

Date:

Astronomy

Apr. 23, 2014 Rise Set
Actual Time 6:18 AM CEST 8:30 PM CEST
Civil Twilight 5:44 AM CEST 9:05 PM CEST
Nautical Twilight 5:00 AM CEST 9:49 PM CEST
Astronomical Twilight 4:11 AM CEST 10:39 PM CEST
Moon 3:14 AM CEST (4/23) 1:47 PM CEST (4/23)
Length of Visible Light 15h 21m
Length of Day
14h 11m
Last Quarter, 38% of the Moon is Illuminated
Apr 23
Last Quarter
Apr 29
New
May 7
First Quarter
May 14
Full
May 21
Last Quarter

Hourly Weather History & Observations

Time (CEST) Temp. Dew Point Humidity Pressure Visibility Wind Dir Wind Speed Gust Speed Precip Events Conditions
12:00 AM 47 °F 45 °F 92% 30.03 in 11 mi NNE 2.2 mph - -  
1:00 AM 46 °F 45 °F 96% 30.04 in 11 mi NNE 2.2 mph - -  
2:00 AM 46 °F 45 °F 93% 30.05 in 10 mi SSE 2.2 mph - -  
3:00 AM 46 °F 45 °F 95% 30.05 in 9 mi NE 2.2 mph - -  
4:00 AM 45 °F 44 °F 96% 30.07 in 6 mi North 4.5 mph - -  
5:00 AM 44 °F 43 °F 94% 30.08 in 7 mi SE 2.2 mph - -  
5:20 AM 46.4 °F 44.6 °F 93% 30.06 in - ESE 2.3 mph - N/A   Clear
5:50 AM 44.6 °F 41.0 °F 87% 30.06 in - Variable 1.2 mph - N/A   Clear
6:00 AM 42 °F 41 °F 97% 30.09 in 6 mi SE 4.5 mph - -  
6:20 AM 44.6 °F 42.8 °F 93% 30.09 in - Calm Calm - N/A   Clear
6:50 AM 46.4 °F 44.6 °F 93% 30.09 in - East 1.2 mph - N/A   Clear
7:00 AM 43 °F 42 °F 97% 30.11 in 5 mi ENE 2.2 mph - -  
7:20 AM 48.2 °F 44.6 °F 87% 30.09 in - Calm Calm - N/A   Clear
7:50 AM 50.0 °F 46.4 °F 87% 30.09 in - ENE 3.5 mph - N/A   Clear
8:00 AM 51 °F 48 °F 87% 30.11 in 7 mi NE 2.2 mph - -  
8:20 AM 53.6 °F 46.4 °F 77% 30.09 in - Variable 2.3 mph - N/A   Clear
8:50 AM 55.4 °F 48.2 °F 77% 30.09 in - Variable 1.2 mph - N/A   Clear
9:00 AM 56 °F 49 °F 71% 30.11 in 6 mi WNW 2.2 mph - -  
9:20 AM 57.2 °F 48.2 °F 72% 30.09 in - Variable 1.2 mph - N/A   Clear
9:50 AM 59.0 °F 48.2 °F 67% 30.09 in - Variable 2.3 mph - N/A   Clear
10:00 AM 60 °F 50 °F 61% 30.12 in 6 mi SSW 2.2 mph - -  
10:20 AM 60.8 °F 48.2 °F 63% 30.09 in - Variable 2.3 mph - N/A   Clear
10:50 AM 62.6 °F 48.2 °F 59% 30.12 in - Variable 3.5 mph - N/A   Clear
11:00 AM 65 °F 51 °F 50% 30.12 in 7 mi WSW 4.5 mph - -  
11:20 AM 64.4 °F 48.2 °F 56% 30.12 in - Variable 3.5 mph - N/A   Clear
11:50 AM 66.2 °F 48.2 °F 52% 30.09 in - Variable 2.3 mph - N/A   Clear
12:00 PM 67 °F 46 °F 36% 30.11 in 11 mi North 4.5 mph - -  
12:20 PM 68.0 °F 46.4 °F 46% 30.09 in - Variable 2.3 mph - N/A   Clear
12:50 PM 69.8 °F 44.6 °F 40% 30.09 in - SW 4.6 mph - N/A   Clear
1:00 PM 72 °F 49 °F 34% 30.09 in 19 mi South 4.5 mph - -  
1:20 PM 71.6 °F 42.8 °F 35% 30.09 in - Variable 3.5 mph - N/A   Clear
1:50 PM 69.8 °F 42.8 °F 38% 30.06 in - West 5.8 mph - N/A   Clear
2:00 PM 72 °F 45 °F 26% 30.07 in 22 mi SE 4.5 mph - -  
2:20 PM 71.6 °F 42.8 °F 35% 30.06 in - ENE 5.8 mph - N/A   Clear
2:50 PM 69.8 °F 41.0 °F 35% 30.06 in - Variable 3.5 mph - N/A   Clear
3:00 PM 72 °F 45 °F 27% 30.06 in 25 mi SSE 4.5 mph - -  
3:20 PM 71.6 °F 42.8 °F 35% 30.06 in - Variable 4.6 mph - N/A   Clear
3:50 PM 71.6 °F 46.4 °F 41% 30.06 in - East 8.1 mph - N/A   Clear
4:00 PM 71 °F 47 °F 31% 30.06 in 28 mi ENE 6.7 mph - -  
4:20 PM 71.6 °F 44.6 °F 38% 30.06 in - ESE 4.6 mph - N/A   Clear
4:50 PM 73.4 °F 44.6 °F 36% 30.04 in - NE 6.9 mph - N/A   Clear
5:00 PM 72 °F 42 °F 23% 30.05 in 31 mi NE 6.7 mph - -  
5:20 PM 71.6 °F 44.6 °F 38% 30.04 in - North 10.4 mph - N/A   Clear
5:50 PM 71.6 °F 46.4 °F 41% 30.04 in - NNE 9.2 mph - N/A   Clear
6:00 PM 72 °F 45 °F 26% 30.04 in 40 mi NNW 8.9 mph - -  
6:20 PM 71.6 °F 44.6 °F 38% 30.04 in - NNE 6.9 mph - N/A   Clear
6:50 PM 71.6 °F 42.8 °F 35% 30.04 in - North 6.9 mph - N/A   Clear
7:00 PM 71 °F 42 °F 24% 30.04 in 44 mi NNW 8.9 mph - -  
7:20 PM 69.8 °F 42.8 °F 38% 30.04 in - NNE 6.9 mph - N/A   Clear
7:50 PM 69.8 °F 42.8 °F 38% 30.04 in - North 5.8 mph - N/A   Clear
8:00 PM 69 °F 41 °F 25% 30.04 in 44 mi NNW 6.7 mph - -  
8:20 PM 68.0 °F 41.0 °F 37% 30.04 in - North 5.8 mph - N/A   Clear
8:50 PM 66.2 °F 42.8 °F 43% 30.06 in - North 4.6 mph - N/A   Clear
9:00 PM 62 °F 44 °F 41% 30.07 in 44 mi NNW 4.5 mph - -  
10:00 PM 62 °F 46 °F 45% 30.08 in 40 mi NNW 6.7 mph - -  
11:00 PM 60 °F 47 °F 51% 30.09 in 34 mi North 4.5 mph - -   Overcast